Location: Squamish
(49.7000°N, 123.1500°W)
Time: 11:41:18
(UTC-07:00)

N. Korean satellite - Visible Passes

Search period start: 20 October 2019 00:00
Search period end: 30 October 2019 00:00
Orbit: 455 x 508 km, 97.2° (Epoch: 20 October)

Date Brightness Start Highest point End Pass type
(mag) Time Alt. Az. Time Alt. Az. Time Alt. Az.
20 Oct 10.2 19:28:26 10° WSW 19:29:54 12° W 19:31:23 10° WNW visible
21 Oct 8.3 06:47:59 10° NNE 06:51:23 38° E 06:54:49 10° SSE visible
21 Oct 9.4 19:01:36 10° SSW 19:04:22 23° W 19:07:11 10° NW visible
22 Oct 9.6 06:23:09 10° NE 06:25:57 21° E 06:28:46 10° SE visible
23 Oct 10.4 05:59:09 10° ENE 06:00:24 11° E 06:01:40 10° ESE visible
24 Oct 7.2 07:05:17 10° NNE 07:08:55 62° ESE 07:12:33 10° S visible
24 Oct 10.0 19:19:54 10° SW 19:21:57 15° W 19:24:02 10° NW visible
25 Oct 8.7 06:40:12 10° NNE 06:43:31 32° E 06:46:51 10° SSE visible
25 Oct 9.0 18:53:26 10° SSW 18:56:26 28° W 18:59:30 10° NW visible
26 Oct 9.9 06:15:29 10° NE 06:18:02 18° E 06:20:35 10° SE visible
26 Oct 7.4 18:27:37 10° S 18:31:01 55° W 18:34:28 10° NNW visible
28 Oct 7.7 06:57:25 10° NNE 07:01:01 51° E 07:04:38 10° S visible
28 Oct 9.8 19:11:30 10° SW 19:13:58 18° W 19:16:29 10° NW visible
29 Oct 9.1 06:32:24 10° NE 06:35:35 27° E 06:38:46 10° SSE visible
29 Oct 8.5 18:45:17 10° SSW 18:48:28 34° W 18:51:44 10° NNW visible
